Wind_Speed
17 17 17 18 18 19 19 19 20 20 19 19 19 19 18 18 19 19 19 18 18 18 19 19 20 20 20 21 21 23 24 24 24 26 29 30 29 28 28 29 31 32 34 35 35 35 34 33 32 31 30 30 30 31 31 31 30 28 27 27 27 26 24 22 20 18 17 16 17
17 17 17 18 18 18 18 19 19 19 20 19 19 19 19 18 18 18 18 18 17 17 18 18 17 18 18 19 21 23 24 24 24 26 27 28 27 27 28 29 30 31 32 33 34 34 34 33 31 30 29 29 29 30 30 31 30 28 27 27 27 27 26 24 22 20 19 19 19
16 17 17 17 18 18 18 19 19 20 20 20 20 20 19 18 18 18 18 17 16 16 16 16 16 16 16 18 20 22 24 24 24 25 26 26 26 26 28 29 29 30 30 31 32 32 32 32 31 31 30 29 29 29 29 29 29 28 28 29 29 28 27 25 24 22 21 21 20
15 16 17 18 19 19 20 19 20 20 20 20 19 19 19 17 16 17 17 17 16 16 15 15 15 15 15 16 19 21 22 23 24 26 26 26 27 28 29 30 30 29 29 29 29 29 30 30 30 30 30 29 29 29 29 29 28 28 29 30 31 30 29 27 25 24 23 22 22
12 15 17 18 19 20 20 20 20 20 20 19 18 18 18 18 17 17 17 17 17 16 15 14 14 14 15 16 18 19 21 23 24 25 26 26 28 29 29 29 29 28 27 27 27 27 28 28 28 28 28 28 27 27 28 29 29 30 31 32 32 32 31 29 27 26 26 25 25
10 12 15 17 19 20 20 20 20 20 19 18 18 18 18 17 17 17 17 16 15 14 14 14 14 15 16 17 18 19 21 23 24 24 25 25 27 28 28 28 28 27 26 26 26 27 27 27 27 26 26 26 26 27 28 29 30 31 32 31 31 31 30 29 29 29 29 29 28
9 10 13 15 17 19 20 20 20 19 19 18 18 18 18 17 17 16 16 15 14 15 15 16 16 16 17 18 18 19 20 22 23 22 22 24 26 26 26 26 26 26 26 26 27 27 27 27 26 25 25 25 26 27 29 30 31 31 30 29 28 27 28 28 29 30 30 30 29
9 9 11 13 15 17 19 19 19 19 18 18 18 18 18 17 16 15 15 15 15 15 16 17 18 18 17 18 18 19 19 20 21 21 22 23 24 24 24 24 24 24 25 25 26 26 26 25 26 25 25 26 27 28 29 30 30 30 28 27 25 25 26 27 28 28 28 28 28
10 9 10 11 13 15 17 18 18 18 18 18 18 17 17 16 15 14 14 15 15 15 15 17 18 18 18 18 18 18 19 19 20 21 21 21 21 21 22 23 23 23 23 23 24 24 24 23 24 25 25 26 27 28 28 29 28 27 26 24 23 23 24 24 25 25 25 25 25
10 9 9 10 11 13 14 15 16 17 17 17 16 15 14 14 15 14 14 14 14 14 15 16 17 18 17 17 18 19 19 19 19 19 20 19 19 20 21 22 23 23 22 22 22 23 22 22 22 23 24 26 26 26 27 27 26 25 23 23 23 23 23 22 23 23 23 23 23
11 10 8 8 9 10 11 13 14 14 15 15 14 14 14 14 15 15 14 14 14 15 16 16 17 17 17 18 18 19 19 19 19 19 19 19 19 20 21 22 22 22 22 22 22 22 21 21 21 22 23 24 24 24 24 25 24 23 22 22 22 23 22 22 21 21 21 22 22
11 10 8 7 7 8 9 10 11 11 12 12 11 12 13 14 15 15 15 15 15 15 15 16 17 17 18 18 18 18 18 18 18 18 18 18 19 20 21 21 22 22 22 22 21 21 21 22 22 22 23 23 23 23 23 23 23 22 22 21 22 22 22 21 21 20 21 21 21
11 10 8 6 5 5 6 8 8 8 8 9 9 10 11 13 13 14 14 15 15 15 15 15 16 17 18 18 17 16 16 17 17 17 18 18 19 20 20 20 21 21 21 21 21 21 21 22 22 23 23 22 21 21 21 22 22 22 21 21 22 22 22 21 20 20 20 21 21
10 8 6 4 3 3 4 5 6 6 6 6 7 8 9 10 11 11 12 13 14 14 14 14 15 16 17 17 16 16 16 16 16 16 17 18 19 19 19 19 20 20 20 20 20 21 21 22 22 22 22 21 20 20 20 20 21 21 21 22 21 21 20 20 20 20 20 20 21
8 6 4 2 1 2 3 4 4 4 5 5 6 7 8 8 9 9 11 12 13 13 13 13 13 14 15 15 15 15 15 15 16 16 17 18 18 19 19 18 19 19 20 20 20 21 21 20 20 20 20 20 20 19 19 19 20 21 21 21 21 21 20 20 20 20 21 22 22
6 4 3 1 2 3 4 4 5 6 7 7 7 7 7 8 8 9 10 11 12 11 11 12 12 13 14 14 14 14 14 14 15 16 17 18 18 18 18 18 19 19 20 21 21 20 19 19 19 19 19 19 19 19 19 19 20 20 20 20 21 20 20 21 21 21 22 22 21
4 3 2 2 4 5 6 7 8 8 8 8 8 8 8 8 8 8 9 10 10 10 10 11 11 12 12 12 12 12 12 13 14 15 16 17 18 18 18 18 19 20 21 21 20 19 18 18 18 19 19 19 19 19 19 20 20 20 20 21 21 21 21 22 22 22 21 21 21
3 2 3 4 6 7 9 9 10 10 10 10 9 9 8 9 9 9 9 9 10 10 10 10 10 11 11 11 11 11 12 13 14 15 16 17 17 18 18 18 19 20 20 19 19 18 18 18 18 19 19 19 19 19 19 20 21 21 21 22 22 22 22 22 21 20 20 20 20
2 3 5 6 8 9 10 11 12 12 11 11 11 10 10 10 9 9 9 9 9 10 10 10 10 10 11 11 11 11 12 12 13 14 15 15 16 17 17 18 18 18 18 17 17 18 18 18 19 19 19 19 19 19 20 21 21 22 22 22 22 22 21 21 20 19 19 18 19
2 4 6 8 10 11 12 12 13 13 12 12 11 11 11 11 10 10 10 9 9 10 10 10 10 10 11 11 11 11 11 11 12 13 13 14 15 16 16 17 17 17 16 16 16 17 18 18 19 19 19 20 20 20 21 22 22 23 23 22 22 21 21 20 19 18 18 17 17
4 6 8 10 11 12 13 13 14 13 13 13 12 12 12 11 11 10 10 9 9 9 10 10 10 10 11 11 11 11 11 11 12 12 13 14 15 15 16 16 16 16 15 15 16 17 17 18 19 20 20 20 21 22 23 23 23 23 23 22 21 20 20 19 18 17 17 16 16
7 9 10 11 12 13 14 14 14 14 14 14 13 13 12 12 11 11 10 10 9 9 10 9 9 10 10 11 11 12 12 12 13 13 13 14 14 15 15 16 16 16 16 16 16 17 18 19 20 21 21 21 22 23 24 23 23 22 22 21 20 19 18 17 17 16 16 15 15
9 11 12 13 13 14 15 15 15 15 15 14 14 13 13 12 11 11 10 10 9 9 10 9 9 10 10 11 12 13 13 13 13 13 13 14 14 14 15 15 16 16 17 17 18 18 19 20 21 21 22 22 23 23 23 22 22 21 21 20 19 18 17 16 16 15 15 14 13
10 11 12 13 14 14 15 15 15 15 15 15 14 13 13 13 12 11 11 10 10 10 10 10 10 10 11 12 12 13 13 14 14 14 13 14 14 14 15 15 16 17 18 18 19 20 21 22 22 22 22 22 22 21 21 21 21 21 21 20 20 19 17 16 15 15 14 13 12
11 12 13 13 14 14 15 15 15 15 15 15 14 14 14 13 13 12 11 11 10 10 10 11 11 11 11 12 12 13 13 14 14 14 14 14 14 15 15 16 16 17 18 18 20 21 23 24 24 23 22 21 21 21 20 20 21 21 21 21 20 19 18 16 15 14 13 12 11
11 11 12 13 13 14 15 15 16 16 15 15 15 15 15 14 13 12 12 12 11 11 11 11 11 11 12 12 12 13 13 13 14 15 15 15 16 16 16 16 16 17 18 18 20 21 22 23 24 23 23 22 21 21 21 21 21 21 20 20 19 18 17 15 14 13 12 11 10
11 11 12 12 13 14 14 15 16 16 16 15 15 15 15 14 13 13 13 13 13 12 12 12 12 12 12 12 13 14 14 14 15 15 16 16 16 16 16 16 16 17 18 19 19 20 20 21 22 22 22 21 21 21 21 21 20 20 19 18 17 16 15 14 13 12 10 9 8
11 11 11 12 13 13 14 15 15 15 15 15 15 15 14 14 14 14 14 14 14 13 13 13 13 13 13 13 14 15 15 16 16 16 16 16 17 17 16 16 16 17 18 19 19 19 19 20 20 20 21 21 21 21 21 20 19 18 17 16 15 14 13 13 11 10 9 7 6
11 11 12 12 13 13 14 15 15 15 16 16 16 15 15 15 15 15 14 14 14 14 14 14 14 14 14 15 15 15 16 16 16 16 17 17 17 16 16 16 17 17 18 18 18 18 18 18 19 19 20 21 22 21 20 19 18 17 16 15 14 13 12 10 9 8 7 6 5
11 12 12 13 13 14 14 15 15 15 16 16 15 15 15 15 14 14 14 14 14 14 14 14 15 15 16 16 16 16 16 17 17 17 17 17 17 16 16 17 17 17 17 17 17 17 18 18 18 19 20 21 21 20 19 18 17 16 15 13 12 11 10 9 8 7 6 6 5
11 11 12 13 13 14 14 14 15 15 15 15 15 14 14 14 14 14 14 14 14 14 14 15 16 17 17 17 17 17 17 17 17 17 18 18 17 17 17 18 17 17 17 16 17 17 17 18 18 18 19 19 19 19 17 16 15 14 13 12 10 9 8 8 7 7 6 6 7
10 11 12 13 13 14 14 14 14 14 14 14 14 14 14 14 14 14 14 14 15 15 15 16 17 17 17 17 17 17 18 18 18 18 18 18 18 18 18 18 18 17 17 17 17 17 17 17 17 17 17 17 16 15 15 14 13 12 11 10 9 9 8 8 8 8 8 7 7
10 11 12 13 13 14 13 13 13 13 13 14 14 14 14 15 15 15 15 14 15 16 16 17 17 18 18 18 18 18 18 18 18 18 18 19 20 20 20 19 18 17 17 17 17 17 17 16 16 15 14 14 13 13 12 12 11 11 10 10 9 9 8 8 9 9 8 8 8
10 11 12 13 13 13 13 13 13 13 14 14 14 14 15 15 15 15 15 15 15 16 17 17 18 18 18 18 19 18 18 18 18 19 20 20 21 21 20 19 18 17 17 17 17 17 16 15 14 13 13 12 12 12 11 11 11 11 11 11 10 10 10 9 9 9 8 8 7
11 12 13 13 13 13 13 13 13 13 14 14 15 14 14 14 15 15 15 15 16 16 17 17 17 17 18 18 18 18 18 18 19 20 20 21 21 20 20 19 18 17 17 17 17 16 15 14 13 12 12 12 12 12 12 12 12 12 11 11 11 11 10 10 9 8 7 6 5
11 12 13 13 13 13 13 13 13 14 14 15 15 14 14 14 14 15 15 16 16 17 17 17 17 17 17 17 17 18 18 19 20 20 20 21 21 20 20 19 18 17 17 16 16 15 13 12 12 11 12 12 13 13 13 13 13 12 12 12 11 11 10 9 8 6 5 4 3
11 12 12 13 13 13 13 13 14 15 15 15 14 14 14 14 14 14 15 15 16 16 17 17 17 17 17 17 17 18 19 19 20 20 20 20 21 21 21 20 19 18 17 16 14 13 12 11 11 11 12 12 13 14 14 14 13 13 12 11 11 10 9 8 7 6 5 4 4
12 12 12 13 13 13 13 14 14 15 15 15 14 14 14 14 14 14 14 15 16 17 17 17 17 17 17 17 18 18 18 19 19 19 19 20 21 21 21 20 19 18 16 15 13 12 12 12 11 11 12 13 14 14 14 13 12 11 11 10 10 9 8 7 6 6 5 4 4
12 12 13 13 13 13 13 14 14 14 14 14 14 14 14 14 14 14 15 15 17 17 18 17 17 17 17 18 18 18 18 17 18 18 19 19 20 21 21 20 19 17 15 13 13 13 13 13 13 12 13 13 14 14 13 12 11 10 9 9 9 9 8 7 6 5 5 4 3
13 13 13 13 13 13 14 14 14 14 14 14 14 14 14 14 14 15 16 17 17 18 18 18 17 18 18 19 19 18 18 18 18 18 19 19 20 20 20 20 18 16 14 13 13 13 14 14 13 13 13 13 14 14 13 11 9 8 8 8 8 8 7 6 5 4 4 3 3
13 13 13 13 13 13 14 14 14 14 14 14 14 14 14 15 16 17 17 18 18 18 18 18 18 18 19 19 20 20 20 20 20 20 20 20 20 19 18 17 16 15 14 13 13 14 14 14 13 13 13 13 14 13 11 9 8 8 7 7 7 6 6 5 4 3 2 2 3
Wind_Direction
235 233 231 228 226 225 225 225 225 226 227 228 227 225 223 222 224 226 226 225 225 226 229 231 231 232 232 229 226 224 222 220 219 220 223 224 224 226 227 225 224 224 224 223 222 222 221 221 221 220 219 217 216 215 216 218 218 217 215 212 212 215 218 220 216 209 201 198 201
235 234 233 231 228 226 226 226 226 227 227 227 228 228 227 223 224 226 226 225 225 226 228 230 230 231 230 229 228 226 223 220 219 221 222 223 226 228 227 225 223 222 222 223 221 220 219 218 217 216 216 215 213 211 212 216 218 217 214 211 213 217 219 218 212 203 196 196 199
238 236 235 234 231 228 227 227 227 227 227 227 228 228 228 226 227 228 229 228 226 225 226 229 230 229 228 226 227 226 224 221 219 220 222 222 224 225 224 222 220 219 220 221 220 219 218 216 215 214 213 212 210 208 209 213 216 214 210 209 210 213 214 210 204 196 191 193 195
244 240 237 236 234 231 229 229 229 228 227 227 227 228 229 228 228 229 231 231 229 226 225 226 228 226 223 222 223 224 223 221 220 221 222 222 222 222 222 220 218 217 218 220 219 218 217 215 213 211 210 209 207 206 207 209 209 207 205 205 206 207 208 205 198 191 187 188 187
254 244 239 237 236 234 233 232 232 231 230 229 228 229 230 231 231 232 232 231 231 227 222 221 221 220 219 219 221 223 223 221 221 221 222 222 220 219 219 218 217 218 220 221 219 217 216 213 210 208 208 207 206 206 206 206 202 199 199 200 201 203 202 199 192 186 184 183 183
266 251 242 238 237 236 236 236 235 235 234 233 231 231 231 230 230 229 229 228 227 223 218 216 217 218 219 220 221 222 222 221 220 220 220 221 220 217 216 216 217 221 224 223 220 216 214 211 208 207 206 205 204 204 205 203 197 194 194 194 195 196 194 189 185 182 181 181 182
277 259 247 241 238 237 237 237 237 237 236 235 234 233 232 230 229 226 224 223 222 221 219 218 219 220 221 220 220 220 220 219 218 216 217 218 218 214 211 211 215 220 223 222 217 214 211 209 207 205 202 201 200 200 201 198 194 192 191 190 190 188 185 181 180 180 181 182 183
294 274 256 246 240 237 237 237 237 237 236 236 235 234 233 231 228 224 221 219 220 220 221 221 222 222 221 219 217 216 216 215 213 212 214 215 214 210 208 209 212 214 215 214 211 208 207 205 204 202 198 196 195 196 196 195 193 191 189 187 185 183 180 179 179 180 181 183 183
308 292 273 255 245 239 237 237 237 236 236 236 235 235 234 232 227 222 218 218 218 218 219 221 222 221 219 216 214 212 212 211 210 210 211 211 208 206 206 208 207 206 205 205 205 203 201 199 198 197 195 194 193 193 194 193 191 189 187 184 181 179 179 179 180 180 180 180 178
314 303 285 264 250 242 238 237 236 236 236 236 236 235 233 231 228 225 222 221 219 217 217 218 219 217 213 211 210 209 209 208 207 207 207 206 204 203 204 204 202 198 196 198 199 198 196 193 192 193 193 194 194 193 193 191 189 186 184 182 178 176 176 177 178 177 175 173 171
320 313 298 274 257 246 239 236 236 235 235 237 238 237 235 234 232 230 227 224 219 216 214 214 213 210 207 206 206 207 207 206 206 206 204 200 198 197 197 196 194 192 190 191 193 192 191 191 192 193 194 195 195 193 191 189 187 183 180 177 175 173 172 172 171 170 168 167 166
324 323 313 289 266 249 239 234 234 234 235 237 239 239 237 236 233 230 226 221 215 210 207 207 206 204 202 202 203 203 204 204 205 203 200 194 191 190 189 188 187 188 188 188 188 188 189 192 194 196 196 196 194 191 187 185 183 180 176 172 171 169 167 165 165 165 165 165 165
327 329 323 301 273 249 236 230 230 231 234 236 238 237 233 229 224 221 216 210 204 200 199 202 201 200 199 199 199 198 199 201 202 200 196 191 188 186 185 184 184 185 185 185 185 185 188 191 194 195 195 193 190 186 183 181 179 176 171 167 166 164 163 162 163 164 164 164 163
330 332 328 312 274 239 226 221 221 222 223 222 223 220 214 209 205 203 200 196 193 192 193 195 195 196 196 196 195 195 197 198 197 195 192 189 187 185 183 181 182 182 181 182 183 184 187 190 192 193 192 188 184 180 178 177 175 172 168 165 163 162 161 161 161 161 160 158 156
333 337 337 328 243 201 197 192 187 186 185 185 188 189 186 180 179 182 185 186 187 188 189 188 188 189 192 193 193 193 194 194 193 191 189 187 186 184 181 180 179 179 179 180 182 184 187 189 191 191 188 183 178 174 172 172 171 168 166 163 161 160 158 157 157 155 154 153 152
336 348 3 49 141 155 155 150 150 155 158 156 160 160 157 157 163 170 176 179 181 183 184 182 181 183 186 188 189 189 188 188 188 187 186 184 183 182 180 179 178 179 180 181 183 185 187 187 188 186 183 178 173 169 166 166 165 163 162 160 158 156 154 153 152 153 154 156 157
344 9 54 103 123 132 136 138 143 147 147 143 142 140 141 149 157 165 170 173 174 174 174 176 177 178 179 180 181 181 180 181 182 182 182 181 180 180 180 180 181 183 184 184 184 184 183 182 181 178 174 170 167 164 162 160 159 158 157 156 154 152 151 151 153 155 159 163 166
359 48 90 109 121 130 136 140 141 139 136 134 132 132 138 147 150 154 159 164 167 166 165 166 170 172 173 172 172 174 176 176 177 178 178 178 178 179 180 181 183 184 185 185 183 181 177 174 170 167 164 162 160 159 157 155 154 153 152 151 150 150 151 154 158 162 165 169 172
33 82 103 118 127 131 135 136 134 131 129 129 131 133 137 144 147 147 149 154 161 162 161 160 162 166 168 169 170 171 172 173 174 174 175 176 177 178 179 180 180 181 182 181 178 174 169 165 161 157 155 154 153 152 151 150 149 148 148 148 150 152 156 159 163 166 169 172 174
74 98 113 125 126 125 126 127 126 126 127 129 133 134 136 140 143 143 142 145 153 159 161 162 163 165 167 169 169 167 167 169 170 171 173 175 176 177 178 177 175 175 175 172 168 164 160 156 153 151 150 148 147 147 146 146 146 146 148 151 154 158 162 166 168 169 171 174 176
90 106 117 123 122 120 120 122 123 125 127 128 130 131 132 136 138 138 139 144 150 157 161 164 164 163 164 165 164 162 162 164 166 169 171 173 174 176 176 174 170 167 165 161 158 154 152 149 148 147 146 146 146 146 146 146 147 149 152 156 160 164 167 169 170 171 172 174 175
99 110 117 117 117 118 119 119 121 122 124 124 125 126 129 132 133 136 141 147 151 154 157 158 158 158 159 160 159 159 159 161 164 168 170 171 170 171 171 169 166 162 158 154 151 149 147 146 146 146 146 146 146 148 149 150 151 154 157 160 163 165 166 168 168 168 169 169 170
105 111 112 111 113 116 117 117 118 119 120 120 121 122 124 126 129 134 140 144 147 149 151 151 151 153 156 158 160 160 161 162 164 167 169 169 166 164 163 162 160 157 154 152 150 148 146 145 145 146 147 146 147 149 152 153 155 156 158 160 161 161 160 160 161 161 161 163 164
106 108 109 111 113 114 115 116 117 118 118 119 121 122 122 123 125 128 132 135 139 142 145 147 149 152 155 158 161 162 163 162 162 162 163 164 161 158 155 154 154 154 154 153 153 151 149 147 146 146 147 147 148 151 153 156 157 158 158 157 156 155 154 155 155 156 157 160 163
106 108 109 112 114 116 117 118 118 119 121 123 124 124 123 123 122 124 127 130 135 139 143 146 148 151 154 155 158 160 161 161 159 157 155 154 153 152 149 148 148 148 149 151 153 153 152 150 149 148 148 148 150 152 155 157 158 158 157 155 153 152 152 153 154 157 159 163 166
103 105 107 111 115 117 118 120 121 122 123 124 124 123 122 121 121 124 128 131 135 139 143 145 146 148 151 152 153 154 155 155 155 152 149 147 146 146 146 146 146 146 147 149 151 151 151 152 152 152 152 152 153 153 154 155 156 155 154 154 153 153 153 154 157 161 164 168 173
99 101 104 109 112 114 116 119 122 122 122 123 122 122 121 122 122 125 129 131 135 138 141 142 143 145 147 149 149 148 147 147 148 147 146 145 143 143 145 145 145 146 147 148 149 150 151 154 156 157 157 156 156 155 153 152 152 152 152 152 153 154 155 157 160 164 169 174 180
98 100 104 107 108 110 113 117 119 119 120 121 121 121 121 122 123 126 129 132 135 136 137 138 141 144 145 145 144 144 144 144 143 143 143 143 143 143 143 143 143 144 145 147 148 149 152 156 159 161 161 159 157 154 152 150 149 150 150 152 153 155 157 159 163 167 172 176 180
102 104 107 107 108 110 113 115 115 117 118 119 119 118 118 119 122 125 129 132 134 135 135 137 141 143 142 140 141 142 142 142 143 143 143 142 141 141 140 140 140 142 145 147 147 149 151 155 159 161 161 159 155 152 150 148 148 149 150 152 154 156 158 160 163 166 167 164 159
107 108 109 109 109 110 110 111 112 114 114 114 113 113 113 115 119 124 127 130 132 135 137 140 142 141 140 140 142 142 141 142 144 144 142 140 138 137 137 138 139 143 146 148 147 146 147 151 154 155 156 155 153 150 149 149 149 150 151 152 154 156 157 158 157 155 149 142 135
108 110 111 109 108 106 106 106 107 108 108 108 107 108 111 114 118 122 126 130 133 136 140 143 142 141 141 143 143 143 142 143 143 142 140 138 135 134 134 136 139 142 146 147 145 142 142 144 147 150 151 152 151 150 149 149 150 150 150 150 150 150 149 147 142 136 130 127 125
107 108 107 105 102 101 101 101 102 103 105 107 109 111 114 117 121 125 129 133 136 138 141 143 143 142 142 143 143 143 142 141 140 139 138 136 134 133 133 135 138 141 143 144 141 138 137 139 143 147 150 150 149 149 149 149 149 148 145 142 139 137 134 130 127 125 125 127 132
101 102 101 99 98 98 98 100 102 105 108 111 114 117 120 123 127 130 132 136 139 140 142 144 143 142 142 142 142 141 140 139 138 138 136 134 132 131 132 133 136 139 141 140 137 133 133 137 142 146 148 147 147 147 148 148 145 141 135 129 125 121 119 119 121 126 132 140 148
97 98 97 97 96 97 98 101 105 109 112 113 115 119 123 126 128 130 133 137 139 142 143 144 144 143 143 143 141 139 138 137 136 136 134 133 131 130 131 132 135 137 138 136 131 129 131 136 142 145 146 145 144 144 142 140 134 128 122 119 116 114 116 120 126 134 142 151 157
95 96 95 95 96 97 99 103 106 109 111 112 114 118 122 125 127 130 133 137 139 139 140 141 141 141 140 140 139 138 136 135 135 134 133 132 130 129 129 130 132 134 134 129 127 128 132 138 142 144 144 141 138 134 130 125 120 117 115 115 117 120 124 129 134 139 144 148 151
91 92 94 95 96 98 101 104 106 108 109 110 112 115 118 121 125 129 133 136 136 134 134 134 135 135 134 134 134 135 134 134 134 133 132 131 129 127 125 125 127 128 127 124 126 129 134 139 142 143 140 135 128 122 118 115 114 114 116 120 123 127 131 133 134 133 131 126 120
88 92 95 97 99 100 102 105 107 107 108 109 111 114 117 119 123 127 131 133 131 129 129 129 129 129 130 131 132 133 133 133 132 132 130 129 127 125 122 121 121 120 121 122 125 128 132 135 136 135 132 125 120 116 114 115 117 120 123 126 129 130 131 129 126 120 112 103 93
91 95 99 101 101 102 104 106 106 107 108 110 113 116 118 119 120 123 126 128 126 125 126 126 126 126 127 128 129 131 132 131 131 129 127 125 124 122 120 118 116 116 118 120 122 123 122 121 120 119 117 114 113 114 116 120 124 127 130 131 131 130 127 123 117 111 103 92 78
94 98 102 102 103 103 104 105 106 108 110 113 114 116 117 118 118 120 123 124 124 123 123 122 123 124 124 125 125 126 128 129 128 126 123 121 121 120 119 116 114 114 115 116 115 112 109 107 105 104 105 107 112 117 122 126 130 132 132 131 130 128 123 118 113 106 97 84 69
97 100 102 102 104 105 106 106 107 110 112 114 114 115 116 116 117 119 121 121 121 120 119 118 119 120 121 120 118 118 119 120 121 120 119 118 119 119 119 116 114 113 111 108 106 103 101 99 98 99 102 108 116 122 127 130 133 133 133 131 129 126 123 117 110 102 90 71 53
98 100 101 103 105 107 108 108 109 111 113 113 113 114 116 117 117 118 119 118 117 116 115 115 116 117 118 117 116 115 114 114 115 116 118 119 120 120 119 116 114 110 106 103 101 100 98 98 98 100 103 110 119 126 130 133 133 133 133 132 130 129 128 124 116 104 82 45 24
Height
750 750 751 751 751 751 752 752 752 753 753 754 754 755 755 756 756 757 758 758 759 759 759 760 761 761 762 762 762 763 763 764 765 765 765 765 766 768 769 769 768 769 769 770 770 771 772 773 775 776 777 777 778 780 782 784 786 788 790 792 794 795 796 797 797 798 799 800 801
749 749 749 749 749 750 750 750 750 751 752 752 753 753 754 754 754 755 756 756 757 757 758 759 759 760 760 761 761 761 762 763 764 764 764 765 766 767 768 768 768 768 768 769 769 770 771 772 773 774 775 776 777 778 780 782 784 786 788 790 792 794 794 795 796 796 797 799 799
747 747 748 748 748 748 749 749 749 749 750 750 751 751 752 752 753 754 754 755 756 756 757 758 759 759 759 759 760 760 761 762 762 763 763 764 765 766 767 767 766 767 768 769 769 770 770 770 771 772 774 775 775 776 777 780 782 784 785 787 789 791 792 793 794 795 796 797 798
745 746 746 747 747 747 747 747 747 747 748 749 749 750 750 751 752 752 753 754 755 755 756 756 757 758 758 759 759 759 760 761 761 762 762 762 763 764 765 765 765 765 767 769 770 770 771 771 771 771 772 773 773 774 775 778 780 782 784 785 786 787 789 790 791 793 794 795 796
744 744 744 745 745 745 745 746 746 746 747 747 748 749 749 750 750 751 752 753 753 754 754 755 756 757 757 757 758 758 759 759 760 761 761 761 761 761 763 764 764 765 766 769 770 771 771 772 772 771 771 772 773 774 774 777 779 781 783 783 784 784 785 786 788 790 792 793 794
743 743 743 743 744 744 744 744 745 745 746 746 747 747 748 748 749 749 750 751 752 752 753 754 755 755 756 756 757 757 758 759 759 760 760 760 759 760 761 763 764 765 766 768 769 770 771 772 772 772 772 772 773 774 775 777 779 780 781 782 782 782 783 784 786 788 789 790 791
742 742 741 742 742 743 743 743 744 744 744 745 745 745 746 747 747 748 748 749 750 751 752 752 753 754 755 755 756 757 757 758 758 759 759 759 759 759 760 762 763 764 765 767 768 769 770 771 771 772 772 772 773 774 776 777 778 779 780 781 781 782 783 784 786 787 787 788 789
741 740 740 740 740 741 741 742 742 743 743 744 744 744 745 745 746 747 747 748 749 750 750 751 752 753 754 755 755 756 756 757 757 758 758 758 758 759 760 762 763 764 765 766 768 769 770 770 770 771 771 772 773 774 776 776 777 778 779 780 781 782 783 784 786 786 787 787 788
740 739 739 739 739 739 740 740 741 742 742 742 743 743 744 744 745 746 746 747 748 749 749 750 751 752 753 754 754 755 756 756 757 757 757 758 759 759 761 762 763 764 765 766 768 769 769 770 770 770 771 772 773 774 775 776 777 778 779 780 781 782 784 785 786 787 787 787 788
739 739 738 738 738 738 739 739 740 740 741 741 742 743 743 744 744 745 745 746 747 748 749 749 750 751 752 753 754 754 755 755 756 757 757 758 759 760 761 762 763 764 765 766 767 769 769 769 770 771 771 772 772 773 774 775 777 778 779 780 781 782 784 786 787 787 788 788 789
739 738 737 737 737 737 738 738 739 740 740 741 741 742 743 743 744 745 745 746 747 748 748 749 749 750 751 752 753 753 754 755 756 756 757 758 759 760 761 761 762 763 764 765 766 767 768 769 770 771 772 772 773 773 774 775 777 778 779 780 781 783 784 786 787 788 789 789 790
738 737 736 736 736 736 737 738 738 739 740 740 741 742 742 743 744 745 745 746 747 748 748 748 749 749 750 751 752 753 754 754 755 756 757 759 759 760 760 761 762 763 764 765 766 767 767 768 769 770 771 772 773 774 774 775 777 778 779 780 781 783 784 786 787 789 789 790 791
737 736 736 735 735 736 736 737 738 739 739 740 741 741 742 743 744 744 745 746 746 747 747 748 748 749 750 750 751 753 754 754 755 756 757 758 759 760 761 761 762 763 764 764 766 767 767 768 769 770 771 772 773 774 774 775 776 778 779 780 782 783 785 786 787 789 789 790 791
736 735 735 735 735 735 736 736 737 738 739 740 740 741 742 743 743 744 745 745 746 747 747 748 749 749 750 751 751 752 753 754 755 756 757 758 759 760 761 761 762 763 764 765 766 767 767 768 769 769 771 772 773 774 774 775 776 778 779 780 782 784 785 786 787 788 789 790 791
735 735 734 734 735 735 736 736 737 738 739 739 740 741 742 742 743 744 745 746 746 747 748 749 749 750 751 751 752 753 754 754 755 756 757 758 759 760 761 761 762 763 764 765 766 767 767 768 769 770 771 772 773 774 774 775 777 778 779 781 782 783 784 786 787 788 789 790 792
735 735 734 734 734 735 736 736 737 737 738 739 740 741 742 743 744 744 745 746 747 748 749 749 750 751 751 752 753 754 754 755 756 756 757 758 759 760 760 761 763 764 764 765 766 766 767 767 769 770 771 772 773 774 774 776 777 779 780 781 782 783 784 785 787 788 789 791 793
735 735 734 735 735 735 736 736 737 738 739 739 740 741 742 743 744 745 746 747 748 749 749 750 750 751 752 753 754 754 755 756 756 757 758 758 759 760 761 762 763 764 764 765 765 766 766 768 769 770 771 772 773 774 775 776 778 779 780 781 783 784 785 786 788 789 790 792 793
735 735 735 735 735 735 736 736 737 738 739 740 740 741 743 744 744 746 747 748 748 749 750 750 751 752 753 754 754 755 756 757 757 758 759 759 760 760 761 762 763 764 764 765 765 766 767 768 769 769 771 772 773 774 776 777 778 779 780 782 783 784 786 787 789 790 791 792 793
736 735 735 735 735 736 736 736 737 738 739 740 741 742 743 744 745 746 747 748 749 749 750 751 752 753 753 754 755 756 756 757 758 759 760 760 761 761 762 763 763 764 765 765 766 767 767 768 769 769 771 773 774 775 776 777 778 779 781 783 784 786 787 789 790 791 792 793 794
736 736 736 736 736 736 737 737 738 739 739 740 741 742 743 744 745 746 747 749 749 750 751 751 752 753 754 755 755 756 757 758 759 760 761 761 762 762 762 763 764 764 765 766 767 768 768 769 769 770 772 773 775 776 777 778 779 780 782 784 785 787 788 789 790 791 792 793 794
737 736 736 736 736 737 737 738 739 739 740 741 742 743 744 744 746 747 748 749 749 751 751 752 753 754 755 756 756 757 758 759 760 761 762 762 762 763 763 764 764 765 766 767 768 769 769 769 770 771 773 774 775 776 778 779 779 781 782 784 786 787 788 789 790 791 793 794 794
737 737 737 737 737 738 738 739 739 740 741 742 743 744 744 745 746 747 748 749 750 751 752 754 754 755 756 757 757 758 759 760 761 762 762 763 763 763 764 764 764 765 766 768 769 769 769 770 771 772 774 775 776 777 779 779 780 781 783 784 786 787 789 790 791 792 793 794 795
738 738 738 738 739 739 739 740 740 741 742 743 744 744 745 745 746 747 748 749 751 752 754 755 756 757 758 758 758 759 759 760 761 762 763 764 764 764 765 765 765 766 767 768 769 769 770 771 773 774 775 776 778 779 779 780 781 782 784 785 787 788 789 790 791 793 794 795 796
739 739 739 739 739 740 740 741 742 742 743 744 744 745 745 746 747 748 749 750 751 753 754 756 757 758 759 759 759 759 760 761 762 763 764 764 765 765 766 767 767 767 768 769 769 770 771 772 774 775 777 778 779 780 781 782 782 783 784 786 787 788 790 791 792 793 794 795 796
740 740 740 741 741 741 742 742 743 744 744 745 745 745 746 746 747 748 749 750 752 754 755 757 758 759 759 760 760 761 761 762 763 764 765 765 766 767 767 768 769 769 769 770 770 771 772 773 774 776 777 778 779 780 781 782 783 784 785 786 787 789 790 791 792 793 794 795 796
742 742 742 742 742 743 743 743 744 744 745 745 745 746 746 747 747 749 750 751 753 755 756 757 759 759 760 761 761 762 763 764 764 765 766 766 767 768 769 769 770 770 770 771 772 773 774 775 776 777 778 779 780 781 782 783 784 785 786 787 788 789 790 791 792 793 794 795 796
743 744 744 744 744 744 744 744 744 745 745 746 746 746 746 747 748 749 751 753 754 755 757 758 759 760 761 762 763 763 764 765 766 766 767 768 768 769 769 770 771 771 772 773 774 775 776 777 777 778 779 779 780 782 783 784 785 786 787 788 789 789 790 791 792 793 794 795 796
745 745 745 745 745 745 745 745 745 746 746 746 746 747 747 748 749 750 752 754 755 756 758 759 760 761 762 763 764 764 765 766 767 768 768 769 769 770 771 771 772 773 774 775 776 777 777 778 779 779 780 781 782 783 784 784 785 786 787 788 789 790 790 791 793 794 794 795 796
746 746 746 746 746 746 746 746 746 747 747 747 747 748 748 749 750 752 753 755 756 757 759 760 761 762 763 764 765 766 766 767 768 769 769 770 771 771 772 773 774 775 776 777 777 778 779 779 780 780 781 782 783 783 784 785 786 787 788 788 789 790 791 792 793 794 794 795 795
747 747 747 748 748 748 747 747 747 748 748 748 748 749 749 751 752 754 755 756 757 758 759 760 762 763 764 765 766 767 768 768 769 769 770 771 772 773 774 774 775 776 777 778 779 779 780 780 781 782 782 783 783 784 785 785 786 787 788 789 789 790 791 792 793 794 794 795 795
749 749 749 749 749 748 748 748 748 748 748 749 749 750 751 753 754 755 757 758 759 759 760 761 762 764 764 766 766 767 768 769 770 771 771 772 773 774 775 776 777 778 779 780 780 781 781 782 782 783 783 784 784 784 785 786 787 788 788 789 790 791 791 792 793 794 794 795 795
749 749 749 749 749 749 749 749 749 749 749 750 751 752 753 755 756 757 758 759 759 760 761 762 764 764 765 767 768 768 769 770 771 772 772 773 774 775 776 777 778 779 780 781 781 782 782 783 783 784 784 784 785 785 786 787 788 788 789 790 790 791 792 793 793 794 794 795 795
751 751 750 750 750 749 749 749 750 750 751 752 753 754 755 756 757 758 759 759 760 761 762 763 764 765 766 767 768 769 770 771 772 773 773 774 775 776 777 778 779 780 781 782 783 783 783 783 784 784 785 785 786 787 787 788 789 789 790 790 791 792 793 793 794 794 794 795 796
752 751 751 750 750 750 751 751 752 752 753 754 754 755 756 757 758 759 760 761 762 763 764 764 765 766 767 768 769 770 771 772 773 774 774 775 776 777 778 779 781 782 783 783 783 784 784 784 784 785 785 786 787 788 788 789 789 790 791 791 792 792 793 794 794 794 795 795 796
753 752 752 751 752 752 753 753 754 754 755 756 757 758 758 759 760 761 761 762 763 764 765 766 767 767 769 769 770 771 772 773 774 774 775 776 777 778 779 780 782 783 784 784 784 784 784 784 785 785 786 787 788 788 789 789 790 791 791 792 793 793 794 794 794 795 795 795 796
754 753 753 753 754 754 755 755 756 756 757 758 759 759 760 761 762 763 763 764 765 765 766 767 768 769 770 771 772 773 774 774 775 776 777 777 778 779 780 781 782 784 784 784 784 784 785 785 786 786 787 787 788 789 789 790 791 792 792 793 793 794 794 794 795 795 795 795 795
755 755 755 755 756 756 756 757 757 758 759 760 761 761 762 763 764 764 765 766 766 767 768 769 770 771 772 773 774 774 775 776 776 777 778 779 779 780 781 782 783 784 785 785 785 785 786 786 787 787 788 788 789 789 790 791 792 793 793 794 794 794 795 795 795 795 795 795 795
757 757 757 757 757 758 758 759 759 760 761 762 763 763 764 765 766 766 767 768 768 769 770 771 772 773 774 774 775 776 777 778 778 779 779 780 780 781 782 783 784 785 786 786 786 786 787 787 788 788 788 789 789 790 791 792 793 793 794 794 795 795 795 795 795 795 795 795 795
759 759 759 759 759 759 760 760 761 762 762 763 764 765 766 766 767 768 769 769 770 770 771 772 774 774 775 776 777 778 779 780 780 780 781 782 782 782 783 784 785 786 787 787 787 788 788 788 789 789 789 789 790 791 792 793 794 794 794 795 795 795 795 795 795 796 796 795 795
760 760 760 761 761 761 762 762 763 764 764 765 766 767 767 768 769 769 770 771 772 772 773 774 775 776 777 777 778 779 780 781 781 782 782 783 783 784 784 785 786 787 788 788 788 789 789 789 789 789 790 790 791 792 793 793 794 794 795 795 795 795 796 796 796 796 796 796 795
762 762 762 762 763 763 763 764 764 765 766 767 767 768 769 769 769 770 771 772 773 774 774 775 776 777 778 778 779 779 780 781 782 783 783 784 784 785 786 786 787 788 789 789 789 789 789 790 790 790 790 791 791 792 793 794 794 795 795 796 796 796 796 796 796 796 796 796 796